Cancun International Airp, Mexico

7:50 PM EST on September 30, 2016 (GMT -0500)
Cancun International

Weather History for MMUN - October, 2012

Change the Weather History Date:

Wednesday, October 10, 2012

  Actual Average Record
Temperature  
Mean Temperature 80 °F -  
Max Temperature 87 °F 87 °F 93 °F (2004)
Min Temperature 73 °F 73 °F 62 °F (2010)
Cooling Degree Days 15    
Growing Degree Days 30 (Base 50)    
Moisture  
Dew Point 74 °F    
Average Humidity 86    
Maximum Humidity 100    
Minimum Humidity 62    
Precipitation  
Precipitation 8.10 in - - ()
Sea Level Pressure  
Sea Level Pressure 29.97 in    
Wind  
Wind Speed 4 mph ()    
Max Wind Speed 10 mph    
Max Gust Speed 17 mph    
Visibility 6.8 miles    
Events Rain    
Averages and records for this station are not official NWS values.
T = Trace of Precipitation, MM = Missing Value Source: Averaged Metar Reports

Daily Weather History Graph

Daily Weather History Graph

Search for Another Location

Airport or City:

Trip Planner

Search our weather history database for the weather conditions in past years. The results will help you decide how hot, cold, wet, or windy it might be!

Date:

Astronomy

Oct. 10, 2012 Rise Set
Actual Time 6:41 AM CDT 6:26 PM CDT
Civil Twilight 6:19 AM CDT 6:49 PM CDT
Nautical Twilight 5:53 AM CDT 7:14 PM CDT
Astronomical Twilight 5:27 AM CDT 7:40 PM CDT
Moon 1:54 AM CDT (10/10) 2:56 PM CDT (10/10)
Length of Visible Light 12h 29m
Length of Day
11h 45m
Waning Crescent, 27% of the Moon is Illuminated
Oct 10
Waning Crescent
Oct 15
New
Oct 21
First Quarter
Oct 29
Full
Nov 6
Last Quarter

Hourly Weather History & Observations

Time (CDT) Temp. Heat Index Dew Point Humidity Pressure Visibility Wind Dir Wind Speed Gust Speed Precip Events Conditions
12:45 AM 75.2 °F - 75.2 °F 100% 29.94 in 7.0 mi NE 5.8 mph - N/A   Mostly Cloudy
1:44 AM 73.4 °F - 73.4 °F 100% 29.97 in 7.0 mi NE 5.8 mph - N/A   Mostly Cloudy
2:43 AM 73.4 °F - 71.6 °F 94% 29.96 in 7.0 mi NE 5.8 mph - N/A   Mostly Cloudy
3:46 AM 73.4 °F - 71.6 °F 94% 29.92 in 7.0 mi North 5.8 mph - N/A   Mostly Cloudy
4:45 AM 73.4 °F - 71.6 °F 94% 29.95 in 7.0 mi Calm Calm - N/A   Mostly Cloudy
5:44 AM 73.4 °F - 71.6 °F 94% 29.96 in 7.0 mi Calm Calm - N/A   Mostly Cloudy
6:43 AM 73.4 °F - 71.6 °F 94% 29.94 in 7.0 mi NNW 3.5 mph - N/A   Scattered Clouds
7:46 AM 77.0 °F - 75.2 °F 94% 29.99 in 7.0 mi North 3.5 mph - N/A   Scattered Clouds
8:40 AM 82.4 °F 90.9 °F 77.0 °F 84% 30.00 in 7.0 mi Calm Calm - N/A   Scattered Clouds
9:46 AM 84.2 °F 92.3 °F 75.2 °F 74% 30.02 in 7.0 mi NE 4.6 mph - N/A   Scattered Clouds
10:45 AM 86.0 °F 95.1 °F 75.2 °F 70% 30.03 in 7.0 mi East 6.9 mph - N/A   Scattered Clouds
11:41 AM 86.0 °F 95.1 °F 75.2 °F 70% 30.02 in 7.0 mi ENE 9.2 mph - N/A   Scattered Clouds
12:45 PM 87.8 °F 95.6 °F 73.4 °F 62% 29.99 in 7.0 mi East 10.4 mph - N/A   Scattered Clouds
1:45 PM 87.8 °F 97.6 °F 75.2 °F 66% 29.97 in 7.0 mi NE 9.2 mph - N/A   Scattered Clouds
2:42 PM 86.0 °F 95.1 °F 75.2 °F 70% 29.96 in 7.0 mi ENE 6.9 mph - N/A   Mostly Cloudy
3:43 PM 84.2 °F 92.3 °F 75.2 °F 74% 29.94 in 7.0 mi East 9.2 mph - N/A   Mostly Cloudy
4:46 PM 84.2 °F 94.1 °F 77.0 °F 79% 29.93 in 7.0 mi ENE 8.1 mph - N/A   Mostly Cloudy
5:30 PM 77.0 °F - 73.4 °F 89% 29.94 in 5.0 mi NE 2.3 mph - N/A Rain Light Rain
5:48 PM 77.0 °F - 75.2 °F 94% 29.95 in 6.0 mi ENE 2.3 mph - N/A   Mostly Cloudy
6:11 PM 77.0 °F - 73.4 °F 89% 29.95 in 6.0 mi ENE 9.2 mph - N/A Rain Light Rain
6:43 PM 75.2 °F - 73.4 °F 94% 29.94 in 6.0 mi ESE 4.6 mph - N/A Rain Rain
7:01 PM 77.0 °F - 73.4 °F 89% 29.94 in 6.0 mi NNE 2.3 mph - N/A   Mostly Cloudy
7:41 PM 78.8 °F - 75.2 °F 89% 29.94 in 7.0 mi NE 3.5 mph - N/A   Mostly Cloudy
8:45 PM 78.8 °F - 75.2 °F 89% 29.97 in 7.0 mi NE 3.5 mph - N/A   Mostly Cloudy
9:49 PM 80.6 °F 87.1 °F 77.0 °F 89% 30.01 in 7.0 mi ENE 4.6 mph - N/A   Scattered Clouds
10:50 PM 77.0 °F - 75.2 °F 94% 30.01 in 7.0 mi NE 4.6 mph 17.3 mph N/A   Scattered Clouds
11:40 PM 75.2 °F - 73.4 °F 94% 30.00 in 7.0 mi NNW 3.5 mph - N/A   Scattered Clouds